Location: Taupo
(38.6830°S, 176.0830°E)
Time: 15:00:20
(UTC+13:00)

Terra - Pass Details

Date: 24 January 2019
Orbit: 701 x 703 km, 98.2° (Epoch: 19 February)

Event Time Altitude Azimuth Distance (km) Brightness Sun altitude
Rises 23:11:51 0° 154° (SSE) 3,127 5.5 -23.9°
Reaches altitude 10° 23:14:31 10° 140° (SE) 2,200 4.5 -24.2°
Enters shadow 23:16:47 21° 115° (ESE) 1,596 3.5 -24.5°
